Home   Weather   Lidzbark Warmiński   Past weeks

Flag for Poland Past Weather in Lidzbark Warmiński, Poland — Yesterday and Last 2 Weeks

Now
40 °F

Drizzle. Overcast.


Feels Like: 36 °F
Forecast: 36 / 46 °F
Wind: 5 mph from Northeast

Location: Ketrzyn

Current Time: Apr 28, 2017 at 10:05:10 pm

Latest Report: Apr 28, 2017 at 9:00 pm


Visibility: 3 mi

Pressure: 29.85 "Hg

Humidity: 90%

Dew Point: 37 °F

Location of Lidzbark WarmińskiLocation

Past Weather in Lidzbark Warmiński — Graph

°F

Lidzbark Warmiński Temperature Yesterday

Maximum temperature yesterday: 52 °F (at 2:00 pm)
Minimum temperature yesterday: 36 °F (at 5:00 am)
Average temperature yesterday: 44 °F

High & Low Weather Summary for the Past Weeks

 TemperatureHumidityPressure
High61 °F (Apr 25, 1:00 pm)96% (Apr 15, 10:00 pm)30.50 "Hg (Apr 15, 10:00 pm)
Low26 °F (Apr 19, 5:00 am)25% (Apr 23, 4:00 pm)29.50 "Hg (Apr 25, 2:00 pm)
Average40 °F71%29.94 "Hg
* Reported Apr 13 7:00 pm — Apr 28 7:00 pm, Lidzbark Warmiński, Weather by CustomWeather, © 2017

Note: Actual official high and low records may vary slightly from our data, if they occured in-between our weather recording intervals... More about our weather records

Advertising

Lidzbark Warmiński Weather History for the Previous 24 Hours

Scroll right to see more
 ConditionsComfort  
Time TempWeatherWind HumidityBarometerVisibility
7:00 pm
Fri, Apr 28
40 °FDrizzle. Cloudy.5 mph93%29.86 "Hg3 mi
6:00 pm40 °FLight rain. Cloudy.6 mph92%29.87 "Hg3 mi
5:00 pm40 °FLight rain. Cloudy.5 mph92%29.90 "Hg3 mi
4:00 pm41 °FLight rain. Cloudy.5 mph89%29.90 "Hg4 mi
3:00 pm40 °FLight rain. Cloudy.5 mph91%29.92 "Hg3 mi
2:00 pm41 °FLight rain. Cloudy.5 mph90%29.94 "Hg4 mi
1:00 pm41 °FRain. Cloudy.6 mph87%29.95 "Hg4 mi
12:00 pm41 °FRain. Cloudy.5 mph88%29.96 "Hg3 mi
11:00 am42 °FLight rain. Cloudy.5 mph78%29.97 "Hg8 mi
10:00 am43 °FDrizzle. Cloudy.7 mph72%29.99 "Hg6 mi
9:00 am44 °FQuite cool.3 mph73%30.00 "Hg13 mi
8:00 am42 °FQuite cool.3 mph83%30.00 "Hg7 mi
7:00 am40 °FQuite cool.1 mph89%30.01 "Hg6 mi
6:00 am38 °FChilly.1 mph90%30.01 "Hg6 mi
5:00 am38 °FChilly.2 mph90%30.01 "Hg7 mi
4:00 am38 °FChilly.1 mph89%30.02 "Hg6 mi
3:00 am37 °FChilly.1 mph88%30.03 "Hg7 mi
2:00 am37 °FFog.1 mph88%30.03 "Hg3 mi
1:00 am39 °FFog.1 mph84%30.03 "Hg3 mi
12:00 am40 °FChilly.1 mph82%30.04 "Hg8 mi
11:00 pm
Thu, Apr 27
42 °FQuite cool.2 mph74%30.03 "Hg9 mi
10:00 pm43 °FQuite cool.2 mph72%30.01 "Hg19 mi
Weather by CustomWeather, © 2017

See weather overviewHow to use our weather pages